* Astronomy

Members Login
Username 
 
Password 
    Remember Me  
Post Info TOPIC: Asteroid 2012 XA133


L

Posts: 131433
Date:
RE: Asteroid 2012 XA133
Permalink  
 


Orbital elements:
2012 XA133                                          PHA, Earth MOID = 0.0170 AU
Epoch 2016 Jan. 13.0 TT = JDT 2457400.5                 MPC
M  59.74942              (2000.0)            P               Q
n   0.64403852     Peri.   77.80703     +0.55101089     +0.83296228
a   1.3279900      Node   225.74956     -0.79047926     +0.50155024
e   0.6977928      Incl.    4.05119     -0.26745007     +0.23371177
P   1.53           H   21.0           G   0.15           U   5

MPEC 2015 - X02



__________________


L

Posts: 131433
Date:
Permalink  
 

Orbital elements:
2012 XA133                                          PHA, Earth MOID = 0.0171 AU
Epoch 2012 Sept. 30.0 TT = JDT 2456200.5                MPC
M   6.50525              (2000.0)            P               Q
n   0.63111902     Peri.   77.15270     +0.54656720     +0.83580944
a   1.3460521      Node   226.10374     -0.79351150     +0.49713956
e   0.7078131      Incl.    4.12505     -0.26758887     +0.23296960
P   1.56           H   20.9           G   0.15           U   9

MPEC 2012 - X81



__________________
Page 1 of 1  sorted by
 
Quick Reply

Please log in to post quick replies.



Create your own FREE Forum
Report Abuse
Powered by ActiveBoard